FW8813 Weather Reports


Display with metric or nautical units.
time (UTC)temp
F
wind
direction
speed
MPH
gust
MPH
rain 1hr
in
rain 24hr
in
rain mn
in
humidity
%
barometer
mb
20260504110533 40 0 0.0 0.0 0.00 0.00 0.00 92 1016.8
20260504100532 37 218 0.0 1.0 0.00 0.00 0.00 93 1016.8
20260504081542 36 0 0.0 0.0 0.00 0.00 0.00 91 1016.7
20260504081033 36 0 0.0 0.0 0.00 0.00 0.00 92 1016.7
20260504080533 36 0 0.0 0.0 0.00 0.00 0.00 92 1016.7
20260504050535 40 0 0.0 0.0 0.00 0.00 0.00 86 1017.1
20260504045533 40 0 0.0 0.0 0.00 0.00 0.00 86 1017.1
20260504045034 40 0 0.0 0.0 0.00 0.00 0.00 87 1017.2
20260504044545 40 0 0.0 0.0 0.00 0.00 0.00 87 1017.1
20260504044034 39 0 0.0 0.0 0.00 0.00 0.00 86 1017.1
20260504043534 39 0 0.0 0.0 0.00 0.00 0.00 85 1017.0
20260504043048 40 0 0.0 0.0 0.00 0.00 0.00 84 1016.9
20260504042534 40 0 0.0 0.0 0.00 0.00 0.00 83 1017.1
20260504042032 41 0 0.0 0.0 0.00 0.00 0.00 82 1017.1
20260504041539 41 0 0.0 0.0 0.00 0.00 0.00 82 1017.0
20260504041033 41 0 0.0 0.0 0.00 0.00 0.00 81 1017.2
20260504040536 42 0 0.0 3.0 0.00 0.00 0.00 81 1017.0
20260504040100 42 0 0.0 3.0 0.00 0.00 0.00 81 1017.1
20260504035534 42 285 1.0 3.0 0.00 0.00 0.00 82 1017.2
20260504035033 42 0 0.0 0.0 0.00 0.00 0.00 81 1017.1
20260504034547 42 0 0.0 1.0 0.00 0.00 0.00 81 1017.0
20260504034033 42 0 0.0 1.0 0.00 0.00 0.00 81 1017.1
20260504033534 42 0 0.0 0.0 0.00 0.00 0.00 82 1017.1
20260504033047 43 0 0.0 1.0 0.00 0.00 0.00 81 1017.0
20260504032535 43 0 0.0 1.0 0.00 0.00 0.00 80 1017.1
20260504032034 43 285 0.0 1.0 0.00 0.00 0.00 79 1017.0
20260504031544 43 0 0.0 0.0 0.00 0.00 0.00 79 1017.1
20260504031035 43 0 0.0 0.0 0.00 0.00 0.00 79 1017.1
20260504030534 43 0 0.0 0.0 0.00 0.00 0.00 80 1017.2
20260504030046 43 0 0.0 0.0 0.00 0.00 0.00 79 1017.2
20260504025533 43 0 0.0 0.0 0.00 0.00 0.00 79 1017.2
20260504025033 43 0 0.0 0.0 0.00 0.00 0.00 78 1017.2
20260504024542 44 0 0.0 0.0 0.00 0.00 0.00 77 1017.3
20260504024034 44 0 0.0 0.0 0.00 0.00 0.00 76 1017.1
20260504023535 44 0 0.0 0.0 0.00 0.00 0.00 77 1017.1
20260504023045 44 0 0.0 0.0 0.00 0.00 0.00 75 1016.9
20260504022537 44 0 0.0 0.0 0.00 0.00 0.00 75 1017.0
20260504022034 45 0 0.0 0.0 0.00 0.00 0.00 74 1017.0
20260504021547 46 0 0.0 0.0 0.00 0.00 0.00 73 1016.9
20260504021033 46 0 0.0 0.0 0.00 0.00 0.00 72 1017.0
20260504020534 46 0 0.0 0.0 0.00 0.00 0.00 72 1017.2
20260504020046 46 0 0.0 0.0 0.00 0.00 0.00 73 1016.9
20260504015533 46 0 0.0 0.0 0.00 0.00 0.00 72 1016.7
20260504015032 46 0 0.0 0.0 0.00 0.00 0.00 71 1016.4
20260504014553 47 0 0.0 0.0 0.00 0.00 0.00 70 1016.5
20260504014033 47 0 0.0 0.0 0.00 0.00 0.00 69 1016.3
20260504013534 48 0 0.0 0.0 0.00 0.00 0.00 69 1016.3
20260504013039 48 0 0.0 2.0 0.00 0.00 0.00 69 1016.3
20260504012536 48 281 0.0 2.0 0.00 0.00 0.00 67 1016.3
20260504012034 49 0 0.0 2.0 0.00 0.00 0.00 66 1016.1
20260504011542 49 0 0.0 2.0 0.00 0.00 0.00 64 1016.0
20260504011034 49 279 0.0 1.0 0.00 0.00 0.00 62 1016.0
20260504010533 50 0 0.0 0.0 0.00 0.00 0.00 63 1016.0
20260504010053 51 0 0.0 0.0 0.00 0.00 0.00 61 1015.8
20260504005535 51 0 0.0 0.0 0.00 0.00 0.00 59 1015.7
20260504005036 52 0 0.0 0.0 0.00 0.00 0.00 58 1015.9
20260504004550 52 0 0.0 0.0 0.00 0.00 0.00 57 1015.9
20260504004035 52 0 0.0 0.0 0.00 0.00 0.00 56 1016.0
20260504003534 52 0 0.0 0.0 0.00 0.00 0.00 54 1015.9
20260504003055 53 0 0.0 0.0 0.00 0.00 0.00 53 1016.0
20260504002533 54 0 0.0 0.0 0.00 0.00 0.00 53 1015.9
20260504002034 55 0 0.0 0.0 0.00 0.00 0.00 52 1016.0
20260504001555 56 0 0.0 0.0 0.00 0.00 0.00 52 1015.9
20260504001034 56 0 0.0 0.0 0.00 0.00 0.00 46 1015.8
20260504000533 57 0 0.0 0.0 0.00 0.00 0.00 43 1015.7
20260504000042 58 0 0.0 0.0 0.00 0.00 0.00 42 1015.6
20260503235533 58 0 0.0 0.0 0.00 0.00 0.00 41 1015.6
20260503235040 59 0 0.0 0.0 0.00 0.00 0.00 40 1015.5
20260503234549 59 0 0.0 0.0 0.00 0.00 0.00 39 1015.5
20260503234034 60 0 0.0 0.0 0.00 0.00 0.00 39 1015.5
20260503233533 61 0 0.0 0.0 0.00 0.00 0.00 38 1015.3
20260503233047 62 0 0.0 0.0 0.00 0.00 0.00 37 1015.2
20260503232533 62 0 0.0 1.0 0.00 0.00 0.00 35 1015.3
20260503232033 63 0 0.0 1.0 0.00 0.00 0.00 34 1015.4
20260503231548 64 0 0.0 2.0 0.00 0.00 0.00 34 1015.4
20260503231033 66 217 0.0 2.0 0.00 0.00 0.00 31 1015.3
20260503230537 66 246 0.0 2.0 0.00 0.00 0.00 32 1015.3
20260503225533 66 197 0.0 3.0 0.00 0.00 0.00 32 1015.4
20260503225033 67 153 0.0 2.0 0.00 0.00 0.00 31 1015.3
20260503224546 67 0 0.0 3.0 0.00 0.00 0.00 31 1015.3
20260503224034 66 0 0.0 3.0 0.00 0.00 0.00 30 1015.4
20260503223534 66 0 1.0 3.0 0.00 0.00 0.00 31 1015.4
20260503223044 66 239 0.0 4.0 0.00 0.00 0.00 30 1015.5
20260503222535 66 152 1.0 5.0 0.00 0.00 0.00 30 1015.6
20260503222122 66 264 2.0 8.0 0.00 0.00 0.00 28 1015.5
20260503221551 66 272 3.0 8.0 0.00 0.00 0.00 27 1015.4
20260503221033 66 267 4.0 8.0 0.00 0.00 0.00 27 1015.6
20260503220534 66 0 2.0 5.0 0.00 0.00 0.00 28 1015.6
20260503220053 66 24 2.0 6.0 0.00 0.00 0.00 25 1015.7
20260503215533 66 0 2.0 8.0 0.00 0.00 0.00 25 1015.8
20260503215033 66 328 3.0 8.0 0.00 0.00 0.00 26 1015.8
20260503214545 66 264 3.0 6.0 0.00 0.00 0.00 28 1015.8
20260503214033 66 277 3.0 8.0 0.00 0.00 0.00 27 1015.8
20260503213533 66 286 1.0 8.0 0.00 0.00 0.00 28 1015.9
20260503213046 66 259 2.0 7.0 0.00 0.00 0.00 31 1015.8
20260503212534 66 290 3.0 7.0 0.00 0.00 0.00 27 1015.9
20260503212033 65 252 3.0 6.0 0.00 0.00 0.00 27 1015.8
20260503211544 65 284 3.0 9.0 0.00 0.00 0.00 25 1015.8
20260503211033 65 299 3.0 9.0 0.00 0.00 0.00 26 1016.0
20260503210534 65 290 5.0 11.0 0.00 0.00 0.00 25 1016.0
20260503210045 66 292 5.0 11.0 0.00 0.00 0.00 26 1016.0
20260503205534 66 303 3.0 7.0 0.00 0.00 0.00 26 1015.9
20260503205034 66 304 3.0 7.0 0.00 0.00 0.00 26 1016.0
20260503204544 66 317 2.0 5.0 0.00 0.00 0.00 27 1016.1
20260503204034 66 338 1.0 4.0 0.00 0.00 0.00 30 1016.2
20260503203537 66 224 1.0 9.0 0.00 0.00 0.00 28 1016.1
20260503203047 65 270 2.0 10.0 0.00 0.00 0.00 29 1016.2
20260503202534 64 271 5.0 10.0 0.00 0.00 0.00 25 1016.1
20260503202034 64 278 6.0 10.0 0.00 0.00 0.00 25 1016.2
20260503201548 64 252 2.0 9.0 0.00 0.00 0.00 26 1016.3
20260503201033 64 298 1.0 9.0 0.00 0.00 0.00 28 1016.4
20260503200535 64 21 2.0 8.0 0.00 0.00 0.00 28 1016.4
20260503200041 64 264 5.0 8.0 0.00 0.00 0.00 25 1016.5
20260503195534 64 0 1.0 10.0 0.00 0.00 0.00 28 1016.6
20260503195034 64 248 2.0 10.0 0.00 0.00 0.00 27 1016.7
20260503194547 64 11 3.0 7.0 0.00 0.00 0.00 26 1016.7
20260503194034 64 49 3.0 9.0 0.00 0.00 0.00 28 1016.7
20260503193535 63 281 5.0 9.0 0.00 0.00 0.00 32 1016.7
20260503193048 63 360 3.0 8.0 0.00 0.00 0.00 31 1016.8
20260503192534 63 300 4.0 8.0 0.00 0.00 0.00 31 1016.9
20260503192034 63 158 3.0 8.0 0.00 0.00 0.00 30 1016.9
20260503191542 63 266 3.0 6.0 0.00 0.00 0.00 29 1017.2
20260503191036 63 240 2.0 8.0 0.00 0.00 0.00 31 1017.2
20260503190545 63 235 3.0 8.0 0.00 0.00 0.00 34 1017.3
20260503190042 63 0 1.0 7.0 0.00 0.00 0.00 32 1017.3
20260503185533 62 76 2.0 7.0 0.00 0.00 0.00 29 1017.4
20260503185035 63 243 2.0 9.0 0.00 0.00 0.00 28 1017.6
20260503184548 62 236 2.0 10.0 0.00 0.00 0.00 27 1017.6
20260503184033 62 7 4.0 10.0 0.00 0.00 0.00 30 1017.8
20260503183534 62 293 4.0 10.0 0.00 0.00 0.00 29 1017.6
20260503183105 62 304 3.0 9.0 0.00 0.00 0.00 28 1017.7
20260503182534 62 338 1.0 9.0 0.00 0.00 0.00 30 1017.9
20260503182034 62 267 1.0 9.0 0.00 0.00 0.00 30 1017.8
20260503181603 62 243 4.0 9.0 0.00 0.00 0.00 32 1018.0
20260503181033 61 297 2.0 10.0 0.00 0.00 0.00 32 1018.0
20260503180534 61 26 4.0 14.0 0.00 0.00 0.00 32 1018.2
20260503180044 61 104 6.0 14.0 0.00 0.00 0.00 32 1018.2
20260503175534 62 43 6.0 11.0 0.00 0.00 0.00 31 1018.2
20260503175034 62 293 1.0 4.0 0.00 0.00 0.00 34 1018.3
20260503174548 61 0 0.0 5.0 0.00 0.00 0.00 36 1018.3
20260503174034 61 266 2.0 9.0 0.00 0.00 0.00 33 1018.2
20260503173534 61 249 4.0 9.0 0.00 0.00 0.00 31 1018.2
20260503173039 62 216 2.0 9.0 0.00 0.00 0.00 31 1018.2
20260503172536 62 198 1.0 9.0 0.00 0.00 0.00 36 1018.4
20260503172036 61 154 3.0 9.0 0.00 0.00 0.00 32 1018.7
20260503171545 60 153 1.0 6.0 0.00 0.00 0.00 35 1018.4
20260503171033 60 81 2.0 6.0 0.00 0.00 0.00 31 1018.4
20260503170533 60 79 2.0 6.0 0.00 0.00 0.00 37 1018.5
20260503150534 53 0 5.0 10.0 0.00 0.00 0.00 44 1020.1
20260503131033 48 269 3.0 9.0 0.00 0.00 0.00 55 1020.1
20260503130533 48 283 5.0 9.0 0.00 0.00 0.00 53 1020.1